Regional Weather Roundup
Issued by NWS

Home | Current Version | Previous Version | Text Only | Print | Product List | Glossary Off
Versions: 1 2 3 4 5 6 7 8 9 10 11 12 13 14 15 16 17 18 19 20 21 22 23 24 25 26 27 28 29 30 31 32 33 34 35 36 37 38 39 40 41 42 43 44 45 46 47 48 49 50

000
ASUS45 KABQ 231410
RWRNM
WEATHER ROUNDUP FOR NEW MEXICO
NATIONAL WEATHER SERVICE ALBUQUERQUE NM
800 AM MDT SAT AUG 23 2014

NOTE: "FAIR" MEANS FEW OR NO CLOUDS BELOW 12,000 FEET AGL WITH NO
       SIGNIFICANT WEATHER OR OBSTRUCTIONS TO VISION.

      THIS PRODUCT IS RELEASED AS TWO VERSIONS.  ONE VERSION NEAR
      THE TOP OF THE HOUR CONTAINING PRELIMINARY DATA FROM ALBUQUERQUE
      AND OTHER STATIONS.  A FINAL VERSION WITH ADDITIONAL DATA IS
      ISSUED ABOUT 10 MINUTES AFTER THE HOUR.

NMZ501-503-504-510>518-231500-
NORTHWEST PLATEAU/NORTHCENTRAL MOUNTAINS

CITY           SKY/WX    TMP DP  RH WIND       PRES   REMARKS
FARMINGTON     CLOUDY    57  52  83 E7        30.14R
LOS ALAMOS     MOSUNNY   52  51  96 CALM      30.25S
SANTA FE       MOSUNNY   56  53  90 S3        30.22R
TAOS           CLOUDY    48  46  93 CALM      30.26R
ANGEL FIRE     CLOUDY    53  45  74 CALM      30.30R

$$
NMZ402-403-502-505>509-231500-
WESTCENTRAL MOUNTAINS/SOUTHWEST MOUNTAINS

CITY           SKY/WX    TMP DP  RH WIND       PRES   REMARKS
GALLUP         SUNNY     56  47  71 S8        30.22S
SILVER CITY    SUNNY     63  55  77 N3        30.20S

$$
NMZ407-409-411-412-231500-
SOUTHERN DESERTS

CITY           SKY/WX    TMP DP  RH WIND       PRES   REMARKS
LORDSBURG      FAIR      68  57  68 CALM      30.12S
DEMING         SUNNY     65  60  84 CALM      30.13R
LAS CRUCES     SUNNY     66  60  81 CALM      30.14F
HOLLOMAN AFB   MOSUNNY   66  62  86 E3        30.11R
ALAMOGORDO     MOSUNNY   66  61  82 CALM      30.13R
T OR C         SUNNY     65  56  72 NW7       30.15R

$$
NMZ519>523-231500-
CENTRAL VALLEYS/CENTRAL HIGHLANDS

CITY           SKY/WX    TMP DP  RH WIND       PRES   REMARKS
ALBUQUERQUE    MOSUNNY   62  56  80 CALM      30.19R
DOUBLE EAGLE   MOSUNNY   57  55  94 CALM      30.21R
MORIARTY ARPT  FAIR      53  50  90 CALM      30.23R
CLINES CORNERS SUNNY     56  52  86 W9        30.23S
BELEN          FAIR      58  58 100 CALM      30.18S
SOCORRO        PTSUNNY   61  60  97 CALM      30.17S

$$
NMZ524>526-539-540-231500-
SOUTHCENTRAL MOUNTAINS

CITY           SKY/WX    TMP DP  RH WIND       PRES   REMARKS
RUIDOSO        SUNNY     59  54  82 NE5       30.27R

$$
NMZ527>531-231500-
NORTHEAST HIGHLANDS/NORTHEAST PLAINS

CITY           SKY/WX    TMP DP  RH WIND       PRES   REMARKS
LAS VEGAS      SUNNY     58  47  66 S10       30.19S
RATON          SUNNY     54  49  83 CALM      30.12S
CLAYTON        SUNNY     66  51  58 W13       30.03S

$$
NMZ532>537-231500-
EASTCENTRAL PLAINS

CITY           SKY/WX    TMP DP  RH WIND       PRES   REMARKS
TUCUMCARI      SUNNY     72  56  57 SW9       30.04R
CANNON AFB     SUNNY     67  66  95 SW6       30.08S
CLOVIS AIRPORT   N/A     66  63  88 SW8       30.10S

$$
NMZ028-029-538-231500-
SOUTHEAST PLAINS

CITY           SKY/WX    TMP DP  RH WIND       PRES   REMARKS
ROSWELL        SUNNY     70  60  70 N3        30.05R
CARLSBAD       MOSUNNY   70  64  81 CALM      30.03S
HOBBS          MOSUNNY   70  64  83 VRB6      30.08R


$$



USA.gov is the U.S. government's official web portal to all federal, state and local government web resources and services.